Weather History for KDVP - March, 2013

Change the Weather History Date:

Wednesday, March 13, 2013

  Actual Average Record
Temperature  
Mean Temperature 22 °F -  
Max Temperature 32 °F - - ()
Min Temperature 12 °F - - ()
Degree Days  
Heating Degree Days 43    
Moisture  
Dew Point 18 °F    
Average Humidity 80    
Maximum Humidity 93    
Minimum Humidity 64    
Precipitation  
Precipitation 0.00 in - - ()
Sea Level Pressure  
Sea Level Pressure 30.29 in    
Wind  
Wind Speed 10 mph (SW)    
Max Wind Speed 17 mph    
Max Gust Speed 23 mph    
Visibility 9 miles    
Events Snow    
T = Trace of Precipitation, MM = Missing Value Source: NWS Daily Summary

Daily Weather History Graph

Daily Weather History Graph

Search for Another Location

Airport or City:

Trip Planner

Search our weather history database for the weather conditions in past years. The results will help you decide how hot, cold, wet, or windy it might be!

Date:

Astronomy

Mar. 13, 2013 Rise Set
Actual Time 7:38 AM CDT 7:27 PM CDT
Civil Twilight 7:09 AM CDT 7:55 PM CDT
Nautical Twilight 6:36 AM CDT 8:29 PM CDT
Astronomical Twilight 6:02 AM CDT 9:03 PM CDT
Moon 8:13 AM CDT (3/13) 9:51 PM CDT (3/13)
Length of Visible Light 12h 46m
Length of Day
11h 48m
Waxing Crescent, 4% of the Moon is Illuminated
Mar 13
Waxing Crescent
Mar 19
First Quarter
Mar 27
Full
Apr 2
Last Quarter
Apr 10
New

Hourly Weather History & Observations

Time (CDT) Temp. Windchill Dew Point Humidity Pressure Visibility Wind Dir Wind Speed Gust Speed Precip Events Conditions
12:15 AM 19.0 °F 4.5 °F 15.6 °F 87% 30.26 in 10.0 mi NNW 16.1 mph 21.9 mph N/A   Overcast
12:35 AM 18.5 °F 3.3 °F 15.3 °F 87% 30.27 in 10.0 mi NNW 17.3 mph 23.0 mph N/A   Overcast
12:55 AM 18.1 °F 3.9 °F 14.5 °F 86% 30.27 in 7.0 mi NNW 15.0 mph 20.7 mph N/A   Overcast
1:15 AM 17.6 °F 2.7 °F 14.0 °F 86% 30.27 in 7.0 mi NW 16.1 mph - N/A   Overcast
1:35 AM 17.6 °F 3.2 °F 14.0 °F 86% 30.27 in 7.0 mi NNW 15.0 mph 18.4 mph N/A   Overcast
2:35 AM 17.4 °F 4.1 °F 14.0 °F 86% 30.28 in 5.0 mi NNW 12.7 mph 17.3 mph N/A Snow Light Snow
2:55 AM 17.2 °F 6.8 °F 14.0 °F 87% 30.29 in 5.0 mi NNW 8.1 mph - N/A Snow Light Snow
3:15 AM 17.1 °F 4.3 °F 13.6 °F 86% 30.29 in 7.0 mi NNW 11.5 mph - N/A   Overcast
3:55 AM 16.5 °F 6.0 °F 13.5 °F 88% 30.29 in 7.0 mi NNW 8.1 mph - N/A Snow Light Snow
4:15 AM 16.3 °F 3.4 °F 13.3 °F 88% 30.30 in 7.0 mi NW 11.5 mph - N/A Snow Light Snow
4:35 AM 16.3 °F 2.1 °F 13.5 °F 88% 30.31 in 7.0 mi WNW 13.8 mph 17.3 mph N/A   Overcast
4:55 AM 15.8 °F 0.9 °F 12.9 °F 88% 30.31 in 7.0 mi WNW 15.0 mph - N/A Snow Light Snow
5:15 AM 15.6 °F 0.6 °F 12.7 °F 88% 30.32 in 10.0 mi NW 15.0 mph - N/A   Overcast
5:34 AM 15.6 °F 1.8 °F 13.1 °F 90% 30.32 in 7.0 mi WNW 12.7 mph - N/A Snow Light Snow
5:55 AM 15.6 °F 2.5 °F 12.9 °F 89% 30.32 in 10.0 mi NW 11.5 mph - N/A Snow Light Snow
6:15 AM 15.3 °F 2.8 °F 12.7 °F 90% 30.32 in 7.0 mi NW 10.4 mph - N/A Snow Light Snow
6:35 AM 14.5 °F 4.6 °F 12.2 °F 90% 30.32 in 10.0 mi NNW 6.9 mph - N/A   Mostly Cloudy
6:55 AM 13.8 °F 4.9 °F 11.8 °F 92% 30.32 in 10.0 mi NW 5.8 mph - N/A   Clear
7:15 AM 12.9 °F 6.9 °F 11.1 °F 93% 30.32 in 10.0 mi NNW 3.5 mph - N/A   Clear
7:35 AM 12.9 °F 3.8 °F 11.1 °F 93% 30.33 in 10.0 mi West 5.8 mph - N/A   Clear
7:55 AM 13.1 °F 4.0 °F 11.3 °F 93% 30.33 in 10.0 mi West 5.8 mph - N/A   Clear
8:15 AM 13.1 °F 1.8 °F 11.1 °F 92% 30.34 in 10.0 mi WNW 8.1 mph - N/A   Clear
8:35 AM 14.0 °F 5.1 °F 11.8 °F 91% 30.34 in 10.0 mi WNW 5.8 mph - N/A   Clear
8:54 AM 14.9 °F 5.0 °F 12.2 °F 89% 30.34 in 10.0 mi West 6.9 mph - N/A   Clear
9:15 AM 15.8 °F 6.1 °F 12.7 °F 88% 30.35 in 10.0 mi West 6.9 mph - N/A   Clear
9:35 AM 16.3 °F 6.7 °F 12.9 °F 86% 30.36 in 10.0 mi West 6.9 mph - N/A   Clear
9:55 AM 17.4 °F 8.0 °F 13.5 °F 84% 30.36 in 10.0 mi West 6.9 mph - N/A   Clear
10:15 AM 18.5 °F 10.4 °F 14.0 °F 83% 30.37 in 10.0 mi WSW 5.8 mph - N/A   Clear
10:35 AM 19.2 °F 12.5 °F 14.4 °F 81% 30.37 in 10.0 mi West 4.6 mph - N/A   Clear
10:55 AM 19.9 °F 14.9 °F 14.4 °F 79% 30.37 in 10.0 mi WSW 3.5 mph - N/A   Clear
11:15 AM 20.1 °F - 14.0 °F 77% 30.37 in 10.0 mi Calm Calm - N/A   Clear
11:35 AM 21.2 °F - 14.5 °F 75% 30.37 in 10.0 mi Calm Calm - N/A   Clear
11:55 AM 22.6 °F - 15.8 °F 75% 30.36 in 10.0 mi Calm Calm - N/A   Clear
12:14 PM 23.7 °F 19.3 °F 15.4 °F 71% 30.36 in 10.0 mi SW 3.5 mph - N/A   Clear
12:35 PM 24.1 °F - 15.6 °F 70% 30.35 in 10.0 mi Calm Calm - N/A   Clear
12:55 PM 25.0 °F 20.7 °F 15.8 °F 68% 30.36 in 10.0 mi South 3.5 mph - N/A   Clear
1:15 PM 25.3 °F - 14.7 °F 64% 30.35 in 10.0 mi Calm Calm - N/A   Clear
1:35 PM 26.2 °F 22.1 °F 16.0 °F 65% 30.35 in 10.0 mi SSW 3.5 mph - N/A   Clear
1:55 PM 27.3 °F 23.4 °F 16.5 °F 64% 30.34 in 10.0 mi SSW 3.5 mph - N/A   Clear
2:15 PM 28.4 °F 24.6 °F 18.5 °F 66% 30.34 in 10.0 mi SSW 3.5 mph - N/A   Clear
2:35 PM 28.6 °F 23.5 °F 18.3 °F 65% 30.33 in 10.0 mi SW 4.6 mph - N/A   Clear
2:55 PM 29.3 °F - 19.0 °F 66% 30.32 in 10.0 mi Calm Calm - N/A   Clear
3:15 PM 31.1 °F 26.4 °F 20.7 °F 65% 30.31 in 10.0 mi South 4.6 mph - N/A   Clear
3:34 PM 31.5 °F 24.2 °F 21.2 °F 66% 30.31 in 10.0 mi SSW 8.1 mph - N/A   Clear
3:55 PM 32.0 °F 28.7 °F 21.4 °F 65% 30.29 in 10.0 mi South 3.5 mph - N/A   Clear
4:15 PM 32.0 °F 26.4 °F 22.3 °F 67% 30.28 in 10.0 mi South 5.8 mph - N/A   Clear
4:35 PM 32.2 °F 23.2 °F 23.4 °F 70% 30.27 in 10.0 mi SSE 11.5 mph - N/A   Clear
4:55 PM 32.4 °F 24.6 °F 24.3 °F 72% 30.26 in 10.0 mi South 9.2 mph - N/A   Clear
5:15 PM 32.0 °F 23.6 °F 24.8 °F 75% 30.27 in 10.0 mi South 10.4 mph - N/A   Scattered Clouds
5:35 PM 32.0 °F 23.6 °F 23.5 °F 71% 30.26 in 10.0 mi South 10.4 mph - N/A   Clear
5:55 PM 32.0 °F 23.6 °F 23.2 °F 70% 30.26 in 10.0 mi South 10.4 mph - N/A   Clear
6:15 PM 31.8 °F 23.9 °F 23.9 °F 73% 30.25 in 10.0 mi South 9.2 mph - N/A   Clear
6:35 PM 30.9 °F 22.2 °F 24.6 °F 77% 30.25 in 10.0 mi South 10.4 mph - N/A   Clear
6:54 PM 30.2 °F 21.3 °F 24.4 °F 79% 30.25 in 10.0 mi South 10.4 mph - N/A   Clear
7:15 PM 29.3 °F 19.6 °F 24.8 °F 83% 30.25 in 10.0 mi South 11.5 mph - N/A   Clear
7:35 PM 28.9 °F 20.4 °F 24.1 °F 82% 30.24 in 10.0 mi South 9.2 mph - N/A   Clear
7:55 PM 28.4 °F 19.1 °F 24.3 °F 84% 30.24 in 10.0 mi South 10.4 mph - N/A   Clear
8:15 PM 28.4 °F 18.5 °F 23.5 °F 82% 30.23 in 10.0 mi South 11.5 mph - N/A   Clear
8:35 PM 28.4 °F 18.0 °F 24.6 °F 86% 30.22 in 10.0 mi South 12.7 mph - N/A   Clear
8:55 PM 28.0 °F 18.1 °F 24.1 °F 85% 30.21 in 10.0 mi South 11.5 mph - N/A   Clear
9:14 PM 27.9 °F 16.3 °F 23.7 °F 84% 30.20 in 10.0 mi SSE 15.0 mph - N/A   Clear
9:35 PM 27.9 °F 16.8 °F 23.4 °F 83% 30.20 in 10.0 mi South 13.8 mph - N/A   Clear
9:55 PM 27.9 °F 17.3 °F 22.5 °F 80% 30.20 in 10.0 mi South 12.7 mph 17.3 mph N/A   Clear
10:15 PM 28.0 °F 18.1 °F 22.5 °F 80% 30.19 in 10.0 mi South 11.5 mph - N/A   Clear
10:35 PM 28.2 °F 17.2 °F 21.9 °F 77% 30.19 in 10.0 mi South 13.8 mph - N/A   Mostly Cloudy
10:55 PM 28.4 °F 17.0 °F 21.0 °F 74% 30.18 in 10.0 mi South 15.0 mph 21.9 mph N/A   Overcast
11:15 PM 28.8 °F 17.5 °F 21.7 °F 75% 30.17 in 10.0 mi South 15.0 mph 19.6 mph N/A   Overcast
11:35 PM 28.9 °F 17.3 °F 22.1 °F 76% 30.16 in 10.0 mi South 16.1 mph - N/A   Overcast
11:55 PM 29.1 °F 18.4 °F 22.5 °F 76% 30.15 in 10.0 mi South 13.8 mph 21.9 mph N/A   Overcast